| time (UTC) | temp F | wind direction | speed MPH | gust MPH | rain 1hr in | rain 24hr in | rain mn in | humidity % | barometer mb |
| 20260906034513 | 62 | 250 | 0.0 | 0.0 | 0.00 | 0.50 | 0.50 | 88 | 1015.0 |
| 20260906033019 | 62 | 250 | 0.0 | 0.0 | 0.00 | 0.50 | 0.50 | 88 | 1015.0 |
| 20260906031540 | 64 | 250 | 0.0 | 0.0 | 0.00 | 0.50 | 0.50 | 87 | 1014.7 |
| 20260906030028 | 64 | 250 | 0.0 | 1.0 | 0.00 | 0.50 | 0.50 | 86 | 1014.9 |
| 20260906024533 | 65 | 245 | 0.0 | 0.0 | 0.00 | 0.50 | 0.50 | 86 | 1014.9 |
| 20260906023018 | 66 | 245 | 0.0 | 1.0 | 0.00 | 0.50 | 0.50 | 86 | 1015.0 |
| 20260906021520 | 67 | 264 | 0.0 | 0.0 | 0.00 | 0.50 | 0.50 | 87 | 1015.0 |
| 20260906020031 | 68 | 264 | 0.0 | 0.0 | 0.00 | 0.50 | 0.50 | 86 | 1014.9 |
| 20260906014537 | 69 | 264 | 0.0 | 0.0 | 0.00 | 0.50 | 0.50 | 85 | 1014.6 |
| 20260906013035 | 70 | 264 | 0.0 | 1.0 | 0.00 | 0.50 | 0.50 | 85 | 1014.4 |
| 20260906011518 | 70 | 283 | 0.0 | 0.0 | 0.00 | 0.50 | 0.50 | 86 | 1014.3 |
| 20260906010022 | 70 | 285 | 0.0 | 0.0 | 0.00 | 0.50 | 0.50 | 87 | 1014.3 |
| 20260906004526 | 71 | 285 | 0.0 | 1.0 | 0.00 | 0.50 | 0.50 | 87 | 1014.3 |
| 20260906003032 | 72 | 270 | 0.0 | 0.0 | 0.00 | 0.50 | 0.50 | 86 | 1014.4 |
| 20260906001534 | 72 | 199 | 0.0 | 0.0 | 0.00 | 0.50 | 0.50 | 89 | 1014.1 |
| 20260906000018 | 73 | 199 | 0.0 | 1.0 | 0.00 | 0.50 | 0.50 | 89 | 1014.0 |
| 20260905234524 | 73 | 193 | 0.0 | 0.0 | 0.00 | 0.50 | 0.50 | 88 | 1014.0 |
| 20260905233032 | 74 | 193 | 0.0 | 0.0 | 0.00 | 0.50 | 0.50 | 88 | 1013.8 |
| 20260905231532 | 74 | 193 | 0.0 | 0.0 | 0.00 | 0.50 | 0.50 | 88 | 1013.6 |
| 20260905230035 | 75 | 191 | 0.0 | 0.0 | 0.00 | 0.50 | 0.50 | 86 | 1013.6 |
| 20260905224517 | 75 | 191 | 0.0 | 1.0 | 0.00 | 0.50 | 0.50 | 84 | 1013.6 |
| 20260905223035 | 76 | 147 | 0.0 | 2.0 | 0.00 | 0.50 | 0.50 | 82 | 1013.4 |
| 20260905221539 | 78 | 119 | 0.0 | 1.0 | 0.00 | 0.50 | 0.50 | 80 | 1013.2 |
| 20260905220034 | 78 | 120 | 0.0 | 2.0 | 0.00 | 0.50 | 0.50 | 79 | 1013.2 |
| 20260905214532 | 78 | 274 | 0.0 | 1.0 | 0.00 | 0.50 | 0.50 | 79 | 1013.3 |
| 20260905213021 | 78 | 132 | 0.0 | 2.0 | 0.00 | 0.50 | 0.50 | 79 | 1013.2 |
| 20260905211539 | 78 | 262 | 0.0 | 1.0 | 0.00 | 0.50 | 0.50 | 79 | 1013.2 |
| 20260905210031 | 79 | 262 | 0.0 | 1.0 | 0.00 | 0.50 | 0.50 | 79 | 1013.1 |
| 20260905204535 | 79 | 117 | 0.0 | 1.0 | 0.00 | 0.50 | 0.50 | 81 | 1013.2 |
| 20260905203037 | 79 | 117 | 0.0 | 1.0 | 0.00 | 0.50 | 0.50 | 80 | 1013.3 |
| 20260905201525 | 80 | 238 | 0.0 | 2.0 | 0.00 | 0.50 | 0.50 | 80 | 1013.2 |
| 20260905200004 | 78 | 143 | 0.0 | 1.0 | 0.00 | 0.50 | 0.50 | 78 | 1013.4 |
| 20260905194508 | 78 | 143 | 0.0 | 2.0 | 0.00 | 0.50 | 0.50 | 78 | 1013.3 |
| 20260905193014 | 78 | 259 | 0.0 | 0.0 | 0.00 | 0.50 | 0.50 | 85 | 1013.3 |
| 20260905191519 | 77 | 259 | 0.0 | 1.0 | 0.00 | 0.50 | 0.50 | 82 | 1013.3 |
| 20260905190025 | 77 | 259 | 0.0 | 1.0 | 0.00 | 0.50 | 0.50 | 83 | 1013.5 |
| 20260905184506 | 77 | 259 | 0.0 | 1.0 | 0.00 | 0.50 | 0.50 | 82 | 1013.7 |
| 20260905183010 | 79 | 259 | 0.0 | 1.0 | 0.00 | 0.50 | 0.50 | 80 | 1013.7 |
| 20260905181516 | 82 | 258 | 0.0 | 1.0 | 0.00 | 0.50 | 0.50 | 72 | 1013.7 |
| 20260905180021 | 83 | 259 | 0.0 | 1.0 | 0.00 | 0.50 | 0.50 | 71 | 1013.8 |
| 20260905174532 | 81 | 131 | 1.0 | 1.0 | 0.00 | 0.50 | 0.50 | 71 | 1014.1 |
| 20260905173009 | 82 | 112 | 0.0 | 2.0 | 0.00 | 0.50 | 0.50 | 76 | 1014.1 |
| 20260905171529 | 80 | 253 | 0.0 | 1.0 | 0.00 | 0.50 | 0.50 | 76 | 1014.2 |
| 20260905170024 | 80 | 253 | 0.0 | 3.0 | 0.00 | 0.50 | 0.50 | 75 | 1014.2 |
| 20260905164523 | 80 | 84 | 0.0 | 4.0 | 0.00 | 0.51 | 0.50 | 79 | 1014.3 |
| 20260905163030 | 80 | 96 | 1.0 | 5.0 | 0.00 | 0.51 | 0.50 | 79 | 1014.4 |
| 20260905161505 | 78 | 168 | 1.0 | 2.0 | 0.00 | 0.51 | 0.50 | 79 | 1014.6 |
| 20260905160024 | 78 | 250 | 0.0 | 1.0 | 0.00 | 0.51 | 0.50 | 85 | 1014.6 |
| 20260905154540 | 77 | 129 | 0.0 | 2.0 | 0.00 | 0.51 | 0.50 | 84 | 1014.7 |
| 20260905153027 | 77 | 167 | 0.0 | 2.0 | 0.00 | 0.51 | 0.50 | 88 | 1014.8 |
| 20260905151530 | 75 | 188 | 0.0 | 2.0 | 0.00 | 0.51 | 0.50 | 87 | 1014.7 |
| 20260905150010 | 73 | 184 | 0.0 | 1.0 | 0.00 | 0.51 | 0.50 | 91 | 1014.6 |
| 20260905144523 | 73 | 165 | 0.0 | 1.0 | 0.00 | 0.51 | 0.50 | 91 | 1014.5 |
| 20260905143018 | 73 | 165 | 0.0 | 1.0 | 0.00 | 0.51 | 0.50 | 91 | 1014.5 |
| 20260905141528 | 72 | 165 | 0.0 | 1.0 | 0.00 | 0.51 | 0.50 | 92 | 1014.3 |
| 20260905140034 | 72 | 165 | 0.0 | 1.0 | 0.00 | 0.51 | 0.50 | 95 | 1014.4 |
| 20260905134512 | 72 | 165 | 0.0 | 0.0 | 0.00 | 0.51 | 0.50 | 96 | 1014.3 |
| 20260905133016 | 72 | 165 | 0.0 | 0.0 | 0.00 | 0.51 | 0.50 | 96 | 1014.4 |
| 20260905131523 | 71 | 160 | 0.0 | 0.0 | 0.00 | 0.51 | 0.50 | 96 | 1014.6 |
| 20260905130029 | 70 | 147 | 0.0 | 1.0 | 0.00 | 0.51 | 0.50 | 96 | 1014.5 |
| 20260905124540 | 70 | 163 | 0.0 | 0.0 | 0.00 | 0.51 | 0.50 | 97 | 1014.5 |
| 20260905123014 | 69 | 160 | 0.0 | 1.0 | 0.00 | 0.51 | 0.50 | 97 | 1014.6 |
| 20260905121519 | 69 | 160 | 0.0 | 1.0 | 0.02 | 0.51 | 0.50 | 97 | 1014.6 |
| 20260905120027 | 69 | 160 | 0.0 | 1.0 | 0.05 | 0.51 | 0.50 | 96 | 1014.2 |
| 20260905114529 | 69 | 160 | 0.0 | 1.0 | 0.06 | 0.51 | 0.50 | 96 | 1014.0 |
| 20260905113035 | 69 | 160 | 0.0 | 1.0 | 0.08 | 0.51 | 0.50 | 96 | 1013.6 |
| 20260905111514 | 69 | 160 | 0.0 | 0.0 | 0.12 | 0.49 | 0.48 | 96 | 1013.4 |
| 20260905110018 | 69 | 160 | 0.0 | 0.0 | 0.39 | 0.46 | 0.45 | 96 | 1013.5 |
| 20260905104540 | 69 | 160 | 0.0 | 0.0 | 0.39 | 0.45 | 0.44 | 96 | 1013.4 |
| 20260905103033 | 69 | 160 | 0.0 | 0.0 | 0.39 | 0.43 | 0.42 | 96 | 1013.9 |
| 20260905101530 | 69 | 159 | 0.0 | 1.0 | 0.35 | 0.37 | 0.36 | 96 | 1014.5 |
| 20260905100021 | 70 | 181 | 0.0 | 3.0 | 0.05 | 0.07 | 0.06 | 96 | 1015.3 |
| 20260905094522 | 70 | 288 | 0.0 | 2.0 | 0.04 | 0.06 | 0.05 | 97 | 1015.0 |
| 20260905093028 | 70 | 103 | 0.0 | 2.0 | 0.02 | 0.04 | 0.03 | 97 | 1014.7 |
| 20260905091531 | 69 | 255 | 0.0 | 2.0 | 0.00 | 0.02 | 0.01 | 96 | 1014.2 |
| 20260905090031 | 69 | 246 | 0.0 | 0.0 | 0.00 | 0.02 | 0.01 | 96 | 1013.4 |
| 20260905084530 | 69 | 246 | 0.0 | 0.0 | 0.00 | 0.02 | 0.01 | 96 | 1013.4 |
| 20260905083026 | 69 | 246 | 0.0 | 0.0 | 0.00 | 0.02 | 0.01 | 96 | 1013.1 |
| 20260905081530 | 69 | 246 | 0.0 | 0.0 | 0.00 | 0.02 | 0.01 | 96 | 1012.8 |
| 20260905080022 | 69 | 246 | 0.0 | 0.0 | 0.00 | 0.02 | 0.01 | 96 | 1012.7 |
| 20260905074517 | 69 | 246 | 0.0 | 0.0 | 0.00 | 0.02 | 0.01 | 96 | 1013.3 |
| 20260905073036 | 70 | 246 | 0.0 | 0.0 | 0.00 | 0.02 | 0.01 | 96 | 1013.6 |
| 20260905071504 | 70 | 246 | 0.0 | 1.0 | 0.00 | 0.02 | 0.01 | 96 | 1013.3 |
| 20260905070008 | 70 | 246 | 0.0 | 0.0 | 0.01 | 0.02 | 0.01 | 96 | 1013.3 |
| 20260905064515 | 70 | 246 | 0.0 | 0.0 | 0.01 | 0.02 | 0.01 | 96 | 1013.6 |
| 20260905063019 | 69 | 246 | 0.0 | 1.0 | 0.01 | 0.02 | 0.01 | 96 | 1013.9 |
| 20260905061538 | 69 | 244 | 0.0 | 0.0 | 0.01 | 0.02 | 0.01 | 96 | 1014.6 |
| 20260905060006 | 69 | 244 | 0.0 | 0.0 | 0.00 | 0.01 | 0.00 | 96 | 1014.2 |
| 20260905054509 | 69 | 244 | 0.0 | 0.0 | 0.00 | 0.01 | 0.00 | 96 | 1014.5 |
| 20260905053019 | 69 | 244 | 0.0 | 0.0 | 0.00 | 0.01 | 0.00 | 96 | 1014.6 |
| 20260905051523 | 69 | 244 | 0.0 | 0.0 | 0.00 | 0.01 | 0.00 | 96 | 1014.9 |
| 20260905050026 | 69 | 244 | 0.0 | 0.0 | 0.00 | 0.01 | 0.00 | 96 | 1014.7 |
| 20260905044532 | 69 | 244 | 0.0 | 0.0 | 0.00 | 0.01 | 0.00 | 96 | 1014.8 |
| 20260905043011 | 69 | 244 | 0.0 | 0.0 | 0.00 | 0.01 | 0.00 | 96 | 1014.9 |
| 20260905041514 | 69 | 244 | 0.0 | 0.0 | 0.00 | 0.01 | 0.00 | 96 | 1014.9 |
| 20260905040029 | 69 | 244 | 0.0 | 0.0 | 0.00 | 0.01 | 0.00 | 96 | 1015.0 |